Regional Weather Roundup
Issued by NWS

Home | Current Version | Previous Version | Text Only | Print | Product List | Glossary On
Versions: 1 2 3 4 5 6 7 8 9 10 11 12 13 14 15 16 17 18 19 20 21 22 23 24 25 26 27 28 29 30 31 32 33 34 35 36 37 38 39 40 41 42 43 44 45 46 47 48 49 50
000
ASUS45 KREV 282210
RWRNV
NEVADA REGIONAL WEATHER ROUNDUP
NATIONAL WEATHER SERVICE RENO NV
300 PM PDT MON JUL 28 2014

NOTE: "FAIR" INDICATES FEW OR NO CLOUDS BELOW 12,000 FEET WITH NO
SIGNIFICANT WEATHER AND/OR OBSTRUCTIONS TO VISIBILITY.

NVZ001-003-004-282300-
WESTERN NEVADA

CITY           SKY/WX    TMP DP  RH WIND       PRES   REMARKS
RENO           CLOUDY    96  35  11 W12       30.14F
CARSON CITY    FAIR      93  36  13 W10G18    30.17F
SLIDE MTN        N/A     70  45  40 W14         N/A
PYRAMID LAKE     N/A     90 N/A N/A NE5         N/A
FALLON         CLOUDY    93  32  11 CALM      30.11F
LOVELOCK       PTSUNNY   95  31  10 VRB3      30.09F
HAWTHORNE      PTSUNNY   75  59  57 SE18      30.19R
$$

NVZ002-CAZ072-073-282300-
NORTHERN AND CENTRAL SIERRA

CITY           SKY/WX    TMP DP  RH WIND       PRES   REMARKS
S. LAKE TAHOE  PTSUNNY   86  36  16 VRB5      30.32F
TRUCKEE        PTSUNNY   86  39  19 W18       30.30F
SQUAW VLY 8000 NOT AVBL
SUSANVILLE     MOSUNNY   95  34  11 W5        30.13
BLUE CANYON    PTSUNNY   82  40  22 SW8       30.31S
MAMMOTH LAKES  LGT RAIN  64  50  59 S9        30.43S
BRIDGEPORT     FAIR      77  40  26 S3        30.34F
$$

NVZ030-031-036-282300-
NORTHERN NEVADA

CITY           SKY/WX    TMP DP  RH WIND       PRES   REMARKS
ELKO           CLOUDY    89  40  17 NW21G31   30.17F
WINNEMUCCA     SUNNY     95  30  10 VRB6      30.12
WENDOVER       CLOUDY    91  46  21 SW13      30.13S
$$

NVZ035-037-282300-
CENTRAL NEVADA

CITY           SKY/WX    TMP DP  RH WIND       PRES   REMARKS
ELY            CLOUDY    63  59  87 SW12      30.36F
EUREKA           N/A     77  47  34 W22G31    30.29R
$$

NVZ013-014-282300-
SOUTH CENTRAL NEVADA

CITY           SKY/WX    TMP DP  RH WIND       PRES   REMARKS
TONOPAH        CLOUDY    78  49  35 VRB6      30.29F
$$

NVZ017-020-022-282300-
SOUTHERN NEVADA

CITY           SKY/WX    TMP DP  RH WIND       PRES   REMARKS
LAS VEGAS      PTSUNNY   94  57  28 VRB6      30.00F THUNDER
N. LAS VEGAS   MOSUNNY   97  55  24 SE5       30.03F
NELLIS AFB     MOSUNNY   96  58  27 E8        30.01F
HENDERSON      TSTM      90  64  41 S9        30.08S
MERCURY        CLOUDY    84  56  38 SE17G28   30.14R
$$


USA.gov is the U.S. government's official web portal to all federal, state and local government web resources and services.